Погода в Эль-Пасо

США     31°45′32″N   106°29′12″W
темп.,
°C
ветер,
м/с
пор.,
м/с
влажн.,
%
обл.,
%
осадки,
мм/ч
давл.,
гПа
погр.,
м
19 апреля, пн
пн1901:00+11в5747100 0.0 1018509
04:00+10в355470 0.1 1017421
07:00+10в2357100 0.3 1017394
10:00+11в225259 0.0 1018633
13:00+14вюв01390 0.0 10161031
16:00+18зюз24250 0.0 10131901
19:00+21зюз45190 0.0 10102615
22:00+19юз56230 0.0 1011584
20 апреля, вт
вт2001:00+17юз37270 0.0 1012292
04:00+15зюз36290 0.0 1012209
07:00+14зюз24340 0.0 1013150
10:00+17зюз23240 0.0 1014336
13:00+23з34110 0.0 10122279
16:00+26юз5690 0.0 10103374
19:00+26юз5670 0.0 10083820
22:00+19вюв811202 0.0 1012610
21 апреля, ср
ср2101:00+15в58287 0.0 1014484
04:00+12в4736100 0.0 1014372
07:00+10в464257 0.0 1015331
10:00+11в46404 0.0 1017459
13:00+18вюв44252 0.0 1014792
16:00+24юз48140 0.0 10092944
19:00+26ю38112 0.0 10043347
22:00+23зюз711135 0.0 1006786
22 апреля, чт
чт2201:00+19ююз5102190 0.0 1009700
04:00+17юз392417 0.0 1010593
07:00+15зюз362647 0.0 1011340
10:00+18з8112281 0.0 10121286
13:00+22зюз791499 0.0 10102127
16:00+24зюз8101119 0.0 10072770
19:00+25з7101098 0.0 10053058
22:00+23зюз81114100 0.0 10071036
23 апреля, пт
пт2301:00+20зюз91220100 0.0 1009846
04:00+18зюз711210 0.0 1009889
07:00+15зсз411241 0.0 1010707
10:00+17зюз581844 0.0 1011971
13:00+20з89120 0.0 10092429
16:00+23зюз911120 0.0 10073119
19:00+23з101190 0.0 10063247
22:00+20зсз8111012 0.0 10091094